Content
SEND FEEDBACK

Daily
Averages
Monthly
Summary
United States of America

SURRENCY, GEORGIA


Home > North America > United States > Georgia
Elevation: 183 feet     Latitude: 31 44N     Longitude: 082 14W

WEATHER
 
SELECT A DAY
Number of Records: 104,921;   Date Range: 5/13/10 - 11/26/14
 
SHARE

PRINT THIS DATA

[ ← Previous Day ]
WEATHER ALMANAC - JANUARY 31, 2013
[ Next Day → ]
[ °C ]   °F
Weather ElementAverageHighLow
Temperature47.7 °F55.4 °F (2:15 pm)33.8 °F (11:55 pm)
Dewpoint35.3 °F51.8 °F (12:35 am)30.2 °F (2:55 pm)
Humidity65.1 %100 % (9:55 pm)38 % (2:55 pm)
Barometer30.09 in30.24 in (10:15 pm)29.86 in (12:35 am)
Wind Speed10.2 mph23 mph (5:15 am)
Wind Gust29.9 mph (2:55 am)
Weather ElementAverage
Visibility10 mi
Wind DirectionW (271.1 °)

Weather ElementTotal
Precipitation---
Heating Degree Days20.4 (Base 65)
Averaged from 70 records on January 31, 2013
WEATHER CONDITIONS BREAKOUT
WIND DIRECTION BREAKOUT
WEATHER BY HOUR - JANUARY 31, 2013
[ °C ]   °F
Local TimeTemperatureDewpointHumidityBarometerVisibilityWind DirectionWind SpeedGust SpeedPrecipitationEventsConditions
12:35 AM53.6 °F51.8 °F94 %29.86 in10.0 miWest (260°)4.6 mphOvercast
12:55 AM53.6 °F51.8 °F94 %29.87 in10.0 miWest (260°)5.8 mphOvercast
1:15 AM53.6 °F51.8 °F94 %29.87 in10.0 miWest (260°)4.6 mphOvercast
1:35 AM53.6 °F51.8 °F94 %29.88 in10.0 miWest (260°)8.1 mphOvercast
1:55 AM53.6 °F50.0 °F88 %29.88 in10.0 miWNW (290°)12.7 mph19.6 mphOvercast
2:15 AM53.6 °F48.2 °F82 %29.89 in10.0 miWNW (290°)11.5 mph19.6 mphOvercast
2:35 AM53.6 °F46.4 °F77 %29.90 in10.0 miWNW (290°)13.8 mph21.9 mphOvercast
2:55 AM53.6 °F46.4 °F77 %29.91 in10.0 miWNW (290°)12.7 mph29.9 mphMostly Cloudy
3:15 AM53.6 °F44.6 °F72 %29.92 in10.0 miWNW (300°)18.4 mph27.6 mphScattered Clouds
3:35 AM51.8 °F42.8 °F71 %29.94 in10.0 miWNW (300°)11.5 mph23.0 mphScattered Clouds
3:55 AM50.0 °F41.0 °F71 %29.95 in10.0 miNW (310°)18.4 mph24.2 mphScattered Clouds
4:15 AM50.0 °F39.2 °F66 %29.96 in10.0 miWNW (300°)17.3 mph26.5 mphScattered Clouds
4:35 AM50.0 °F37.4 °F62 %29.97 in10.0 miWNW (300°)16.1 mph24.2 mphClear
4:55 AM48.2 °F37.4 °F66 %29.98 in10.0 miWNW (300°)13.8 mph20.7 mphClear
5:15 AM46.4 °F35.6 °F66 %29.99 in10.0 miNW (310°)23.0 mph29.9 mphClear
5:35 AM46.4 °F33.8 °F62 %30.00 in10.0 miNW (310°)12.7 mph20.7 mphClear
5:55 AM44.6 °F33.8 °F66 %30.02 in10.0 miNW (310°)13.8 mph23.0 mphClear
6:15 AM44.6 °F33.8 °F66 %30.03 in10.0 miNW (310°)11.5 mph21.9 mphClear
6:35 AM44.6 °F32.0 °F61 %30.04 in10.0 miNW (310°)10.4 mphClear
6:55 AM44.6 °F32.0 °F61 %30.05 in10.0 miWNW (300°)8.1 mph17.3 mphClear
7:15 AM44.6 °F32.0 °F61 %30.05 in10.0 miWNW (300°)12.7 mph20.7 mphClear
7:35 AM44.6 °F32.0 °F61 %30.07 in10.0 miNW (310°)12.7 mph19.6 mphClear
7:55 AM44.6 °F33.8 °F66 %30.08 in10.0 miWNW (290°)6.9 mphClear
8:15 AM44.6 °F33.8 °F66 %30.08 in10.0 miWNW (290°)6.9 mphClear
8:55 AM44.6 °F33.8 °F66 %30.11 in10.0 miWNW (300°)15.0 mph24.2 mphClear
9:15 AM46.4 °F32.0 °F57 %30.11 in10.0 miNW (310°)18.4 mph21.9 mphClear
9:35 AM46.4 °F32.0 °F57 %30.12 in10.0 miNW (320°)16.1 mph19.6 mphClear
9:55 AM46.4 °F32.0 °F57 %30.13 in10.0 miWNW (300°)13.8 mphClear
10:15 AM46.4 °F32.0 °F57 %30.13 in10.0 miNW (310°)13.8 mph20.7 mphClear
10:35 AM48.2 °F32.0 °F54 %30.13 in10.0 miWNW (290°)12.7 mph19.6 mphClear
10:55 AM50.0 °F32.0 °F50 %30.13 in10.0 miWNW (300°)11.5 mph18.4 mphClear
11:15 AM50.0 °F32.0 °F50 %30.14 in10.0 miWest (280°)10.4 mph17.3 mphClear
11:35 AM50.0 °F32.0 °F50 %30.13 in10.0 miNW (310°)15.0 mph20.7 mphClear
11:55 AM51.8 °F32.0 °F47 %30.13 in10.0 miWest (280°)10.4 mph18.4 mphClear
12:15 PM51.8 °F32.0 °F47 %30.14 in10.0 miWest (280°)11.5 mph20.7 mphClear
12:35 PM51.8 °F32.0 °F47 %30.13 in10.0 miWNW (290°)11.5 mph21.9 mphClear
12:55 PM53.6 °F32.0 °F44 %30.12 in10.0 miWNW (300°)15.0 mph21.9 mphClear
1:15 PM53.6 °F32.0 °F44 %30.12 in10.0 miWNW (290°)13.8 mph23.0 mphClear
1:35 PM53.6 °F32.0 °F44 %30.12 in10.0 miWNW (300°)15.0 mph24.2 mphClear
1:55 PM53.6 °F32.0 °F44 %30.11 in7.0 miWNW (300°)15.0 mph20.7 mphClear
2:15 PM55.4 °F32.0 °F41 %30.11 in10.0 miNW (310°)16.1 mph24.2 mphClear
2:35 PM55.4 °F32.0 °F41 %30.11 in10.0 miWNW (300°)12.7 mph23.0 mphClear
2:55 PM55.4 °F30.2 °F38 %30.11 in10.0 miWNW (300°)19.6 mph25.3 mphClear
3:15 PM55.4 °F30.2 °F38 %30.12 in10.0 miWNW (300°)16.1 mph26.5 mphClear
3:35 PM55.4 °F32.0 °F41 %30.12 in10.0 miNW (310°)15.0 mph20.7 mphClear
3:55 PM55.4 °F32.0 °F41 %30.12 in10.0 miWNW (300°)13.8 mph20.7 mphClear
4:15 PM55.4 °F32.0 °F41 %30.13 in10.0 miWNW (290°)11.5 mph18.4 mphClear
4:35 PM55.4 °F32.0 °F41 %30.13 in10.0 miWNW (290°)10.4 mph19.6 mphClear
4:55 PM55.4 °F32.0 °F41 %30.13 in10.0 miWNW (300°)11.5 mphClear
5:15 PM53.6 °F32.0 °F44 %30.14 in10.0 miWNW (300°)12.7 mphClear
5:35 PM53.6 °F30.2 °F41 %30.14 in10.0 miNW (310°)11.5 mphClear
5:55 PM51.8 °F30.2 °F44 %30.15 in10.0 miWNW (300°)8.1 mphClear
6:15 PM50.0 °F32.0 °F50 %30.16 in10.0 miNW (310°)6.9 mphClear
6:35 PM48.2 °F32.0 °F54 %30.16 in10.0 miWNW (290°)3.5 mphClear
6:55 PM42.8 °F33.8 °F70 %30.17 in10.0 miWest (270°)3.5 mphClear
7:15 PM41.0 °F33.8 °F76 %30.18 in10.0 miWest (260°)3.5 mphClear
7:35 PM41.0 °F33.8 °F76 %30.19 in10.0 miCalmClear
7:55 PM39.2 °F33.8 °F81 %30.19 in10.0 miWest (260°)3.5 mphClear
8:15 PM37.4 °F33.8 °F87 %30.20 in10.0 miCalmClear
8:35 PM37.4 °F33.8 °F87 %30.21 in10.0 miWest (270°)3.5 mphClear
8:55 PM35.6 °F33.8 °F93 %30.21 in10.0 miWest (270°)3.5 mphClear
9:15 PM37.4 °F33.8 °F87 %30.21 in10.0 miWSW (250°)3.5 mphClear
9:35 PM35.6 °F33.8 °F93 %30.22 in10.0 miCalmClear
9:55 PM35.6 °F35.6 °F100 %30.23 in10.0 miWest (270°)4.6 mphClear
10:15 PM35.6 °F33.8 °F93 %30.24 in10.0 miCalmClear
10:35 PM35.6 °F35.6 °F100 %30.24 in10.0 miWest (280°)3.5 mphClear
10:55 PM35.6 °F35.6 °F100 %30.24 in10.0 miWest (280°)3.5 mphClear
11:15 PM41.0 °F33.8 °F76 %30.24 in10.0 miCalmClear
11:35 PM39.2 °F33.8 °F81 %30.24 in10.0 miWest (280°)3.5 mphClear
11:55 PM33.8 °F33.8 °F100 %30.24 in10.0 miWest (270°)3.5 mphClear
Hourly data recorded from KJES, located miles away from Surrency, Georgia







STORIES FROM OUR PARTNERS